Flight Track Log - Related Links

Times and Time Zones

All times are in EST time to prevent confusion due to time zone crossing. See the SWA611 flight status page for this flight to view local times or setup timezone preferences in your user account.

Time Position Orientation Groundspeed Altitude Reporting Facility
EST Latitude Longitude Course Direction KTS MPH feet Rate Location/Type
09:26AM 38.7167 -121.6000 49° Northeast 137 158 2,000  Level Northern Cal TRACON
09:27AM 38.7500 -121.5500 49° Northeast 203 234 4,700 2,900 Climbing Northern Cal TRACON
09:28AM 38.7333 -121.4667 104° East 239 275 7,800 3,167 Climbing Northern Cal TRACON
09:30AM 38.7328 -121.2981 90° East 262 302 14,200 2,983 Climbing Oakland Center
09:31AM 38.7286 -121.1947 93° East 284 327 16,500 2,231 Climbing Oakland Center
09:32AM 38.7239 -121.0683 93° East 349 402 18,700 1,672 Climbing Oakland Center
09:33AM 38.7186 -120.9378 93° East 362 417 19,900 1,770 Climbing Oakland Center
09:34AM 38.7136 -120.8033 93° East 374 430 22,300 2,557 Climbing Oakland Center
09:35AM 38.7069 -120.6633 93° East 389 448 25,100 2,479 Climbing Oakland Center
09:36AM 38.7011 -120.5242 93° East 390 449 27,300 1,884 Climbing Oakland Center
09:37AM 38.7100 -120.3839 85° East 399 459 28,900 1,721 Climbing Oakland Center
09:38AM 38.7342 -120.2383 78° East 415 478 30,800 1,525 Climbing Oakland Center
09:39AM 38.7583 -120.0953 78° East 413 475 32,000 1,230 Climbing Oakland Center
09:40AM 38.7831 -119.9447 78° East 430 495 33,300 1,488 Climbing Oakland Center
09:41AM 38.8097 -119.7786 78° East 425 489 35,000 1,438 Climbing Oakland Center
09:42AM 38.8322 -119.6314 79° East 422 486 36,200 1,180 Climbing Oakland Center
09:43AM 38.8567 -119.4850 78° East 421 484 37,400 1,082 Climbing Oakland Center
09:44AM 38.8783 -119.3364 79° East 425 489 38,400 793 Climbing Oakland Center
09:45AM 38.9011 -119.1908 79° East 419 482 39,000 298 Climbing Oakland Center
09:46AM 38.9236 -119.0456 79° East 417 480 39,000  Level Oakland Center
09:47AM 38.9461 -118.8986 79° East 421 484 39,000  Level Oakland Center
09:48AM 38.9683 -118.7519 79° East 422 486 39,000  Level Oakland Center
09:49AM 38.9906 -118.6061 79° East 420 483 39,000  Level Oakland Center
09:50AM 39.0122 -118.4597 79° East 421 484 39,000  Level Oakland Center
09:51AM 39.0336 -118.3122 79° East 423 487 39,000  Level Oakland Center
09:52AM 39.0594 -118.1339 79° East 426 490 39,000  Level Oakland Center
09:53AM 39.0814 -117.9839 79° East 428 493 39,000  Level Oakland Center
09:54AM 39.1033 -117.8319 79° East 433 498 39,000  Level Oakland Center
09:55AM 39.1250 -117.6800 80° East 433 498 39,000  Level Oakland Center
09:57AM 39.1675 -117.3692 80° East 433 498 39,000  Level Oakland Center
09:58AM 39.1869 -117.2231 80° East 433 498 39,000  Level Oakland Center
09:59AM 39.2067 -117.0764 80° East 434 499 39,000  Level Oakland Center
10:00AM 39.2294 -116.9081 80° East 430 495 39,000  Level Oakland Center
10:01AM 39.2489 -116.7600 80° East 436 502 39,000  Level Oakland Center
10:02AM 39.2689 -116.6144 80° East 433 498 39,000  Level Oakland Center
10:03AM 39.2911 -116.4428 80° East 435 501 39,000  Level Oakland Center
10:04AM 39.3089 -116.2933 81° East 434 499 39,000  Level Salt Lake Center
10:05AM 39.3319 -116.1208 80° East 438 504 39,000  Level Salt Lake Center
10:06AM 39.3497 -115.9717 81° East 440 506 39,000  Level Salt Lake Center
10:07AM 39.3686 -115.8217 81° East 440 506 39,000  Level Salt Lake Center
10:08AM 39.3908 -115.6458 81° East 444 511 39,000  Level Salt Lake Center
10:09AM 39.4083 -115.4958 81° East 444 511 39,000  Level Salt Lake Center
10:10AM 39.4319 -115.3203 80° East 447 514 39,000  Level Salt Lake Center
10:11AM 39.4497 -115.1686 81° East 447 514 39,000  Level Salt Lake Center
10:12AM 39.4672 -115.0175 81° East 444 511 39,000  Level Salt Lake Center
10:13AM 39.4875 -114.8386 82° East 448 516 39,000  Level Salt Lake Center
10:14AM 39.5064 -114.6858 81° East 449 517 39,000  Level Salt Lake Center
10:15AM 39.5253 -114.5069 82° East 449 517 39,000  Level Salt Lake Center
10:16AM 39.5417 -114.3614 82° East 448 516 39,000  Level Salt Lake Center
10:17AM 39.5586 -114.1994 82° East 453 521 39,000  Level Salt Lake Center
10:18AM 39.5764 -114.0383 82° East 453 521 39,000  Level Salt Lake Center
10:20AM 39.5931 -113.8781 82° East 451 519 39,000  Level Salt Lake Center
10:21AM 39.6142 -113.6853 82° East 451 519 39,000  Level Salt Lake Center
10:22AM 39.6308 -113.5231 82° East 453 521 39,000  Level Salt Lake Center
10:23AM 39.6469 -113.3578 83° East 458 527 39,000  Level Salt Lake Center
10:24AM 39.6644 -113.1917 82° East 464 534 39,000  Level Salt Lake Center
10:25AM 39.6808 -113.0256 83° East 465 535 39,000  Level Salt Lake Center
10:26AM 39.6958 -112.8553 83° East 471 542 39,000  Level Salt Lake Center
10:27AM 39.7125 -112.6922 82° East 463 533 39,000  Level Salt Lake Center
10:28AM 39.7297 -112.5081 83° East 467 537 39,000  Level Salt Lake Center
10:29AM 39.7450 -112.3422 83° East 465 535 39,000  Level Salt Lake Center
10:30AM 39.7608 -112.1756 83° East 467 537 39,000  Level Salt Lake Center
10:31AM 39.7761 -112.0094 83° East 467 537 39,000  Level Salt Lake Center
10:32AM 39.7906 -111.8431 84° East 468 539 39,000  Level Salt Lake Center
10:33AM 39.7950 -111.6756 88° East 468 539 39,000  Level Salt Lake Center
10:34AM 39.7764 -111.4947 98° East 458 527 39,000  Level Salt Lake Center
10:35AM 39.7622 -111.3125 96° East 466 536 39,000  Level Salt Lake Center
10:36AM 39.7475 -111.1489 97° East 459 528 39,000  Level Salt Lake Center
10:37AM 39.7339 -110.9869 96° East 468 539 39,000  Level Salt Lake Center
10:38AM 39.7197 -110.7986 96° East 471 542 39,000  Level Salt Lake Center
10:39AM 39.7092 -110.6358 95° East 472 543 39,000  Level Salt Lake Center
10:40AM 39.6986 -110.4431 94° East 478 550 39,000  Level Salt Lake Center
10:42AM 39.6814 -110.1086 94° East 483 556 39,000  Level Denver Center
10:43AM 39.6986 -109.9106 83° East 497 572 39,000  Level Denver Center
10:44AM 39.7333 -109.7408 75° East 507 583 39,000  Level Denver Center
10:45AM 39.7714 -109.5417 76° East 506 582 39,000  Level Denver Center
10:46AM 39.8042 -109.3711 76° East 508 585 39,000  Level Denver Center
10:47AM 39.8361 -109.2003 76° East 506 582 39,000  Level Denver Center
10:48AM 39.8744 -109.0003 76° East 506 582 39,000  Level Denver Center
10:49AM 39.9061 -108.8278 76° East 506 582 39,000  Level Denver Center
10:50AM 39.9436 -108.6272 76° East 505 581 39,000  Level Denver Center
10:52AM 39.9750 -108.4533 77° East 510 587 39,000  Level Denver Center
10:53AM 40.0156 -108.2242 77° East 508 585 39,000  Level Denver Center
10:54AM 40.0472 -108.0508 77° East 511 588 39,000  Level Denver Center
10:55AM 40.0828 -107.8481 77° East 512 589 39,000  Level Denver Center
10:56AM 40.1197 -107.6747 74° East 515 593 39,000  Level Denver Center
10:57AM 40.1614 -107.4719 75° East 518 596 39,000  Level Denver Center
10:58AM 40.1956 -107.2983 75° East 517 595 39,000  Level Denver Center
10:59AM 40.2303 -107.1231 75° East 520 598 39,000 -823 Level Denver Center
11:00AM 40.2700 -106.9206 76° East 516 594 37,300 -2,032 Descending Denver Center
11:01AM 40.3053 -106.7417 75° East 518 596 34,800 -2,419 Descending Denver Center
11:02AM 40.3394 -106.5614 76° East 510 587 32,300 -2,496 Descending Denver Center
11:03AM 40.3753 -106.3747 76° East 507 583 29,600 -2,352 Descending Denver Center
11:04AM 40.4108 -106.1783 77° East 497 572 27,400 -1,548 Descending Denver Center
11:05AM 40.4542 -106.0128 71° East 457 526 26,400 -1,113 Descending Denver Center
11:06AM 40.4983 -105.8658 68° East 434 499 25,100 -1,306 Descending Denver Center
11:07AM 40.5331 -105.7525 68° East 423 487 23,700 -1,645 Descending Denver Center
11:08AM 40.5797 -105.5875 70° East 403 464 21,700 -1,548 Descending Denver Center
11:09AM 40.5406 -105.4775 115° Southeast 362 417 20,500 -1,210 Descending Denver Center
11:10AM 40.4583 -105.3878 140° Southeast 365 420 19,200 -1,258 Descending Denver Center
11:11AM 40.4094 -105.2731 119° Southeast 338 389 17,900 -1,147 Descending Denver Center
11:12AM 40.3647 -105.1656 119° Southeast 336 387 16,600 -1,324 Descending Denver Center
11:13AM 40.3103 -105.0381 119° Southeast 328 377 14,900 -1,452 Descending Denver Center
11:14AM 40.2669 -104.9375 119° Southeast 296 341 13,600 -919 Descending Denver Center
11:15AM 40.2308 -104.8528 119° Southeast 271 312 13,000 -1,008 Descending Denver Center
11:17AM 40.1919 -104.7661 120° Southeast 259 298 11,500 -1,488 Descending Denver Center
11:18AM 40.1267 -104.7258 155° Southeast 258 297 9,900 -1,500 Descending Denver Center
11:19AM 40.0647 -104.6922 157° South 244 281 8,400 -1,161 Descending Denver Center
11:20AM 40.0067 -104.6947 182° South 192 221 7,500 -750 Descending Denver Center
11:21AM 39.9639 -104.6953 181° South 157 181 6,700 -794 Descending Denver Center
11:22AM 39.9133 -104.6958 180° South 148 170 5,700 -677 Descending Denver Center
11:23AM 39.8772 -104.6956 180° South 121 139 5,300 -387 Descending Denver Center
11:25AM 39.8617 -104.6732 North  Level Estimated
11:32AM 39.8617 -104.6732 North  Level Estimated
11:33AM 39.8617 -104.6732 North  Level Estimated

Login

Don't have an account? Register now (free) for customized features, flight alerts, and more!